Location: Alpha Ridge Park
(39.3209°N, 76.9128°W)
Time: 17:22:37
(UTC-04:00)

S-56A Canister/Altair - Pass Details

Date: 21 May 2019
Orbit: 633 x 2499 km, 38.9° (Epoch: 19 June)

Event Time Altitude Azimuth Distance (km) Brightness Sun altitude
Rises 01:11:00 0° 197° (SSW) 3,230 - -30.5°
Reaches altitude 10° 01:13:49 10° 180° (S) 2,496 - -30.5°
Maximum altitude 01:18:01 20° 134° (SE) 2,187 - -30.5°
Exits shadow 01:20:54 16° 105° (ESE) 2,649 10.1 -30.4°
Drops below altitude 10° 01:23:20 10° 91° (E) 3,287 10.8 -30.4°
Sets 01:27:44 0° 77° (ENE) 4,646 11.8 -30.3°
